Simultaneous Nadir Overpasses (SNOs) Predictions

Prediction of SNOs between LANDSAT-8 and TERRA Satellite Orbit:

Table of predicted SNOs for the next 14.0 days since TLE Epoch: 11/2/2024
Index Date (LANDSAT-8) Time (LANDSAT-8) Lat,Lon (LANDSAT-8) SZA (LANDSAT-8 ) Date (TERRA) Time (TERRA) Lat,Lon (TERRA) SZA (TERRA ) Distance(km) Time Diff (sec)
1 11/07/2024 16:59:05 -81.81, 172.21 76.26 11/07/2024 17:00:15 -81.81, 172.25 76.22 0.67 70
2 11/07/2024 17:48:31 81.81, -19.91 103.78 11/07/2024 17:49:35 81.81, -20.00 103.81 1.30 64
3 11/07/2024 18:37:58 -81.81, 147.63 76.22 11/07/2024 18:38:55 -81.80, 147.81 76.17 3.05 57
4 11/07/2024 19:27:25 81.81, -44.93 103.77 11/07/2024 19:28:16 81.81, -44.85 103.81 1.20 51
5 11/07/2024 20:16:51 -81.81, 123.04 76.19 11/07/2024 20:17:36 -81.81, 122.96 76.17 1.35 45
6 11/07/2024 21:06:17 81.80, -69.08 103.86 11/07/2024 21:06:56 81.81, -69.29 103.85 3.30 39
7 11/07/2024 21:55:44 -81.81, 98.46 76.15 11/07/2024 21:56:16 -81.80, 98.52 76.13 1.06 32
8 11/07/2024 22:45:11 81.81, -94.09 103.84 11/07/2024 22:45:37 81.81, -94.15 103.85 0.98 26
9 11/07/2024 23:34:38 -81.81, 73.45 76.17 11/07/2024 23:34:57 -81.81, 73.66 76.13 3.32 19
10 11/08/2024 00:24:04 81.81,-118.68 103.88 11/08/2024 00:24:17 81.80,-118.59 103.90 1.41 13
11 11/08/2024 01:13:30 -81.80, 49.29 76.07 11/08/2024 01:13:37 -81.80, 49.22 76.08 1.24 7
12 11/08/2024 02:02:57 81.80,-143.26 103.92 11/08/2024 02:02:58 81.81,-143.45 103.89 3.05 1
13 11/08/2024 02:52:24 -81.81, 24.28 76.09 11/08/2024 02:52:18 -81.81, 24.36 76.09 1.16 6
14 11/08/2024 03:41:50 81.80,-167.84 103.95 11/08/2024 03:41:38 81.80,-167.89 103.94 0.75 12
15 11/08/2024 04:31:17 -81.80, -0.30 76.05 11/08/2024 04:30:59 -81.81, -0.50 76.09 3.35 18
16 11/08/2024 05:20:43 81.80, 167.58 103.99 11/08/2024 05:20:18 81.79, 167.67 103.99 1.62 25
17 11/08/2024 06:10:10 -81.80, -24.88 76.02 11/08/2024 06:09:39 -81.80, -24.95 76.04 1.08 31
18 11/08/2024 06:59:36 81.80, 143.00 104.03 11/08/2024 06:58:59 81.80, 142.81 103.98 2.96 37
19 11/08/2024 07:49:03 -81.80, -49.46 75.98 11/08/2024 07:48:19 -81.80, -49.39 76.00 1.19 44
20 11/08/2024 08:38:30 81.80, 117.99 104.01 11/08/2024 08:37:40 81.81, 117.95 103.98 0.81 50
21 11/08/2024 09:27:56 -81.80, -74.04 75.94 11/08/2024 09:27:00 -81.80, -74.25 76.00 3.37 56
22 11/08/2024 10:17:23 81.80, 93.41 104.05 11/08/2024 10:16:20 81.80, 93.50 104.03 1.54 63



Historial Predications of SNOs between LANDSAT-8 and TERRA
